Location: Gleizolles
(44.4833°N, 6.7667°E)
Time: 20:52:42
(UTC+00:00)

A-11 Canister half - Pass Details

Date: 25 June 2024
Orbit: 1524 x 1684 km, 47.3° (Epoch: 18 July)

Event Time Altitude Azimuth Distance (km) Brightness Sun altitude
Rises 14:37:30 0° 276° (W) 4,715 12.2 47.5°
Reaches altitude 10° 14:40:35 10° 278° (W) 3,717 11.9 47.0°
Maximum altitude 14:49:58 76° 4° (N) 1,568 9.8 45.4°
Drops below altitude 10° 14:59:17 10° 91° (E) 3,697 10.7 43.7°
Sets 15:02:21 0° 93° (E) 4,688 11.1 43.2°
